This demonstration page uses our WeatherBlox Daily Observations layout. Learn more.

Left ArrowRight Arrow

39.12711, -84.51439

Hourly Observations for June 19, 2017

Temp ( °F °C ) Dew Point ( °F °C ) Humidity (%) Winds ( mph kmh ) Pressure ( in mb ) Visibility ( mi km ) Precip ( " mm )
1:53 am 01:53 Cloudy with Rain 68 20 68 20 100 100 S 6 9 29.81 1009 3 5 0.11 2.79
2:53 am 02:53 Cloudy 68 20 67 19.4 96 96 SSW 5 7 29.80 1009 10 16 0.01 0.25
3:53 am 03:53 Cloudy 67 19.4 66 18.9 97 97 SSW 6 9 29.81 1010 10 16 0.00 0.00
4:53 am 04:53 Clear 66 18.9 65 18.3 96 96 SSW 5 7 29.82 1010 10 16 0.00 0.00
5:53 am 05:53 Clear 65 18.3 64 17.8 97 97 Calm 29.84 1011 10 16 0.00 0.00
6:17 am 06:17 Partly Cloudy with Mist and Fog 64 17.8 64 17.8 100 100 Calm 29.85 1011 3 4 0.00 0.00
6:24 am 06:24 Mostly Cloudy with Mist and Fog 64 17.8 64 17.8 100 100 undefined N/A 29.85 1011 1 2 0.00 0.00
6:27 am 06:27 Mostly Cloudy with Mist and Fog 64 17.8 64 17.8 100 100 undefined N/A 29.85 1011 1 1 0.00 0.00
6:37 am 06:37 Mostly Cloudy with Mist and Fog 65 18.3 65 18.3 100 100 Calm 29.88 1012 1 2 0.00 0.00
6:39 am 06:39 Partly Cloudy with Mist and Fog 64 17.8 64 17.8 100 100 Calm 29.88 1012 3 5 0.00 0.00
6:53 am 06:53 Partly Cloudy with Mist and Fog 64 17.8 64 17.8 100 100 Calm 29.86 1011 4 6 0.00 0.00
8:53 am 08:53 Mostly Sunny 71 21.7 67 19.4 87 87 WSW 3 6 29.88 1012 10 16 0.00 0.00
9:32 am 09:32 Sunny 72 22.2 66 18.9 82 82 WSW 3 6 29.91 1013 10 16 0.00 0.00
9:53 am 09:53 Mostly Sunny 74 23.3 66 18.9 76 76 WSW 6 9 29.88 1012 10 16 0.00 0.00
10:53 am 10:53 Mostly Sunny 77 25 62 16.7 60 60 WNW 9 15 29.89 1012 10 16 0.00 0.00
11:37 am 11:37 Partly Cloudy 77 25 60 15.6 56 56 W 12 19 29.91 1013 10 16 0.00 0.00
11:53 am 11:53 Partly Cloudy 79 26.1 62 16.7 56 56 WSW 9 15 29.90 1013 10 16 0.00 0.00
12:53 pm 12:53 Mostly Cloudy 78 25.6 62 16.7 58 58 WSW 10 17 29.90 1013 10 16 0.00 0.00
1:53 pm 13:53 Mostly Sunny 80 26.7 62 16.7 54 54 SW 13 20 29.88 1012 10 16 0.00 0.00
2:00 pm 14:00 Mostly Sunny 80 26.7 60 15.6 51 51 SW 10 17 29.88 1012 10 16 0.00 0.00
2:53 pm 14:53 Partly Cloudy 81 27.2 59 15 47 47 WSW 18 30 29.86 1011 10 16 0.00 0.00
3:53 pm 15:53 Cloudy 78 25.6 60 15.6 54 54 WSW 10 17 29.87 1011 10 16 0.00 0.03
4:53 pm 16:53 Mostly Sunny 81 27.2 59 15 47 47 W 17 28 29.85 1011 10 16 0.00 0.00
5:53 pm 17:53 Mostly Cloudy 79 26.1 57 13.9 47 47 WSW 18 30 29.87 1011 10 16 0.00 0.00
6:53 pm 18:53 Mostly Sunny 80 26.7 57 13.9 45 45 WSW 15 24 29.87 1011 10 16 0.00 0.00
7:53 pm 19:53 Mostly Sunny 80 26.7 56 13.3 44 44 W 14 22 29.88 1012 10 16 0.00 0.00
8:53 pm 20:53 Sunny 76 24.4 54 12.2 47 47 W 9 15 29.91 1013 10 16 0.00 0.00
9:53 pm 21:53 Clear 74 23.3 54 12.2 50 50 W 5 7 29.93 1014 10 16 0.00 0.00
10:53 pm 22:53 Clear 70 21.1 57 13.9 64 64 VRB 3 6 29.97 1015 10 16 0.00 0.00
11:53 pm 23:53 Clear 68 20 57 13.9 68 68 Calm 29.98 1015 10 16 0.00 0.00

Powered by AerisWeather